Tracking 27188 objects as of 2-Apr-2023
HD Live streaming from Space Station
objects crossing your sky now

STARLINK-2696

Track STARLINK-2696 now!
10-day predictions
STARLINK-2696 is classified as:


NORAD ID: 48484
Int'l Code: 2021-040BJ
Perigee: 553.6 km
Apogee: 555.1 km
Inclination: 53.1 °
Period: 95.6 minutes
Semi major axis: 6925 km
RCS: Unknown
Launch date: May 9, 2021
Source: United States (US)
Launch site: AIR FORCE EASTERN TEST RANGE (AFETR)
Your satellite tracking list
Your tracking list is empty




NASA's NSSDC Master Catalog

Two Line Element Set (TLE):
1 48484U 21040BJ  23091.07243851  .00000174  00000-0  30603-4 0  9998
2 48484  53.0554 341.6311 0001072  96.1061 264.0050 15.06388206104522
Source of the keplerian elements: AFSPC